RH
58 80 48 50 39 34 36 45 56 57 50 51 42 43 40 36 37 30 13 6 5 3 2 2 1 1 1 1 1 1 1 1 1 2 2 2 2 2 2 3 3 3 3 3 4
49 62 55 46 56 44 38 44 48 54 54 48 42 45 37 42 26 21 8 5 3 2 2 1 1 1 1 1 1 1 1 1 1 2 2 2 2 2 2 3 3 3 3 3 4
52 66 53 45 55 57 36 41 45 51 59 46 46 45 42 40 29 10 5 4 2 2 2 1 1 1 1 1 1 1 1 1 1 1 1 1 2 2 2 2 3 4 3 3 4
46 57 59 57 56 52 35 36 41 50 57 44 47 57 52 40 28 7 4 3 2 2 2 1 1 1 1 1 1 1 1 1 1 1 1 1 1 2 2 2 2 4 3 3 4
40 46 73 57 57 50 34 36 42 44 55 49 52 71 50 32 16 10 3 2 2 2 2 1 1 1 1 1 1 1 1 1 1 1 1 2 2 2 1 2 3 3 4 3 5
50 58 71 52 53 58 38 42 32 41 52 50 52 56 38 36 14 12 4 2 2 2 2 1 1 1 1 1 1 1 1 1 1 2 2 2 2 2 2 2 3 4 4 4 6
54 68 52 59 63 60 39 34 36 40 56 56 53 50 47 38 17 9 4 3 2 2 2 2 1 1 1 1 1 1 1 1 1 1 2 2 2 3 2 2 4 4 5 5 8
81 76 50 78 68 60 37 39 42 44 58 47 56 49 51 37 19 12 4 3 3 2 2 2 2 1 1 1 1 1 1 1 2 2 2 2 3 3 3 3 5 6 6 7 10
88 84 68 63 51 46 34 38 37 40 55 54 57 58 53 38 25 19 6 3 3 3 2 2 2 2 1 2 1 1 1 2 2 2 2 2 3 4 4 4 5 7 9 10 11
79 94 92 58 46 48 39 33 31 37 52 58 63 72 53 38 30 21 6 4 4 3 3 2 2 2 2 2 2 2 2 2 2 2 2 3 3 4 4 4 6 9 10 11 11
79 84 69 60 54 49 37 31 29 49 58 65 65 63 51 38 25 19 7 4 4 4 3 2 2 2 2 2 2 2 2 2 2 3 3 3 3 3 4 6 8 10 11 11 15
91 89 81 56 51 48 35 29 40 53 65 70 71 64 49 38 28 17 7 5 4 5 3 2 2 2 2 2 2 2 2 2 3 3 4 3 4 4 5 7 10 14 14 13 27
98 98 72 57 55 52 36 36 46 53 68 85 73 62 54 40 32 17 8 6 5 5 3 2 2 2 3 3 3 3 3 3 4 4 4 5 5 7 9 9 12 14 14 14 29
100 87 69 55 61 46 46 32 42 68 68 84 76 60 58 41 28 19 5 6 6 5 3 2 2 2 3 4 3 3 3 3 4 4 4 5 7 8 10 10 13 16 16 18 24
98 93 63 58 50 44 36 41 48 85 75 72 66 52 53 42 27 19 9 5 6 6 4 3 3 2 4 4 4 4 4 4 5 6 5 5 7 9 14 10 14 19 22 25 23
96 82 62 61 52 48 36 43 56 99 90 92 69 52 46 39 28 18 6 5 5 5 4 3 3 3 4 4 4 4 4 4 5 6 7 6 6 8 10 11 14 17 19 24 44
99 82 62 56 59 48 35 41 65 99 70 69 65 54 38 35 28 14 8 6 5 5 4 3 3 3 4 4 4 4 4 4 5 6 8 9 7 8 11 12 13 16 21 28 42
91 75 60 59 59 45 39 40 61 87 76 69 57 48 32 29 24 14 10 6 5 5 4 3 3 3 4 5 5 5 5 5 6 6 7 9 10 9 10 12 15 25 19 23 32
86 74 64 66 56 48 46 51 100 99 85 65 55 48 27 26 25 12 9 7 5 5 4 4 3 4 4 5 5 6 5 5 5 6 6 7 10 11 11 13 18 26 24 32 28
63 68 56 50 49 60 61 62 100 96 75 62 57 39 25 24 23 14 9 6 6 5 4 4 3 4 5 5 5 6 6 5 5 6 7 7 7 10 13 14 18 24 26 35 38
69 52 52 56 57 54 69 95 100 96 72 67 57 32 23 20 19 11 10 6 5 4 4 4 3 4 5 6 6 6 6 6 6 6 8 7 8 9 11 16 17 19 23 30 35
62 54 54 56 59 48 74 100 100 99 74 77 51 31 21 18 14 12 13 9 5 4 4 4 4 4 5 6 6 7 6 7 7 6 7 9 8 11 12 17 17 17 19 25 31
55 57 67 46 47 54 100 100 100 99 91 70 46 28 15 18 14 14 11 7 5 4 5 4 4 4 5 7 7 8 6 7 7 7 7 8 10 13 17 17 19 20 22 24 31
59 66 57 46 73 88 100 100 100 100 90 62 37 20 17 16 12 14 10 7 5 4 5 5 4 4 6 7 7 8 8 6 7 7 7 8 8 10 20 21 23 22 25 30 34
65 53 37 44 94 100 100 100 100 100 81 57 32 22 16 16 11 13 10 7 5 4 5 5 5 4 6 7 7 8 8 7 7 8 8 8 9 9 14 24 25 31 34 36 38
57 47 57 89 100 100 100 100 100 96 73 46 35 23 18 13 11 14 12 6 5 5 5 5 5 5 5 8 8 8 8 8 8 8 8 9 9 9 11 17 22 32 37 37 33
59 72 86 100 100 100 100 100 96 83 64 50 38 22 20 14 11 15 13 7 4 5 5 5 5 5 5 8 8 9 8 8 8 8 8 9 9 10 11 13 19 25 33 37 39
Wind_Speed
60 64 67 69 73 77 79 83 88 95 98 104 107 110 115 120 119 117 100 82 77 70 66 61 59 63 62 61 60 67 64 67 72 75 79 86 84 87 93 100 95 92 88 82 80
63 65 69 70 74 78 82 85 90 96 100 107 114 115 123 123 125 116 92 83 75 67 62 57 60 60 61 59 61 63 62 67 71 72 75 86 84 85 88 97 97 94 92 83 80
63 68 70 72 75 79 83 87 93 99 103 111 117 119 126 130 130 110 90 79 71 65 60 56 55 57 59 58 56 58 63 66 63 63 72 79 80 83 85 92 93 94 91 87 82
65 67 73 78 76 82 84 88 95 102 108 114 120 124 131 134 129 106 92 76 67 67 63 58 55 56 57 57 54 56 60 61 64 64 69 75 77 80 83 89 90 92 90 86 84
71 70 75 78 77 83 86 91 98 106 112 118 124 123 134 137 120 116 94 75 72 72 66 62 59 54 53 50 51 54 56 59 64 64 69 74 76 78 83 88 89 92 88 86 85
70 72 77 79 82 83 89 94 103 110 115 118 123 128 138 136 123 127 101 80 78 71 70 68 63 56 47 43 44 46 49 54 57 61 66 68 75 75 83 89 89 89 90 87 84
71 73 77 79 85 85 90 99 104 111 117 120 125 129 135 134 139 127 105 89 86 82 79 73 67 57 46 39 34 34 36 42 48 57 66 69 74 77 81 83 87 87 89 88 85
72 74 78 81 84 88 93 97 107 113 117 123 125 132 136 141 138 133 106 93 91 89 86 78 69 57 43 37 31 28 27 31 37 49 61 69 74 78 81 79 84 85 87 89 91
72 75 78 81 85 89 96 101 111 114 120 123 128 134 135 137 146 143 122 104 98 94 89 79 68 54 42 36 31 26 23 24 32 44 54 66 75 78 80 84 82 84 88 91 94
75 75 77 79 87 90 97 105 113 115 121 125 131 133 137 135 144 142 124 110 102 96 92 79 66 52 42 35 28 23 20 23 29 40 51 58 71 77 78 81 78 84 89 93 93
77 76 79 81 85 92 101 108 113 117 123 124 131 133 135 141 148 136 125 119 107 98 91 78 64 50 41 32 23 19 19 22 26 34 44 56 71 73 78 82 87 88 90 93 95
77 78 81 85 88 95 100 112 115 120 124 126 132 137 142 136 145 137 125 120 109 102 88 74 63 48 38 28 19 14 17 21 27 34 44 53 64 69 77 81 86 95 95 94 101
76 79 84 87 91 98 104 110 114 121 125 126 131 139 140 133 139 137 125 120 111 100 90 73 59 46 35 26 15 10 16 23 28 35 46 54 62 78 86 88 94 96 96 97 104
79 82 85 89 92 100 104 113 117 122 127 130 135 140 137 137 139 139 126 119 110 100 91 73 58 45 33 23 13 9 17 22 27 35 46 54 69 78 86 88 95 99 101 103 104
82 82 87 90 96 103 109 113 117 122 127 131 135 143 141 139 139 142 129 117 104 100 90 71 56 45 31 22 13 9 16 21 27 37 45 55 71 80 92 89 96 105 105 104 108
82 85 90 94 97 105 110 114 120 125 128 133 136 141 138 139 138 134 127 112 101 95 87 70 54 44 31 21 12 8 14 21 28 37 46 57 68 79 86 87 95 101 104 106 107
83 87 93 97 100 106 113 115 120 124 130 135 137 137 138 136 135 126 128 113 104 91 84 69 52 42 30 20 11 7 14 22 29 38 45 56 65 76 87 90 95 102 106 106 112
87 91 96 98 102 110 111 116 122 125 130 136 140 139 135 130 133 127 122 112 101 85 79 68 50 39 30 20 12 7 14 23 30 38 47 56 63 74 83 88 94 101 107 109 110
91 95 96 99 106 112 113 118 124 126 130 135 139 137 133 133 129 125 123 105 97 81 74 63 48 35 28 19 13 6 14 23 31 40 46 52 62 70 77 88 93 100 100 100 111
94 96 98 103 108 111 115 121 125 127 132 137 137 134 131 128 120 120 116 98 84 80 67 56 46 32 25 19 13 8 13 21 29 35 41 48 56 65 74 83 93 95 95 99 105
95 97 99 104 108 114 117 121 124 129 134 134 137 134 135 120 112 112 103 100 83 68 62 53 45 30 23 18 14 9 14 21 28 35 42 47 53 60 68 76 82 89 95 98 104
94 98 101 108 110 118 121 121 124 129 136 135 132 133 126 117 114 103 90 87 80 69 61 49 41 29 20 17 14 11 14 19 26 33 40 47 52 57 64 73 77 81 87 94 98
99 102 105 110 115 118 120 121 128 129 133 131 132 132 126 112 105 92 82 72 72 62 55 47 38 27 19 15 14 12 14 18 27 35 41 48 54 59 65 70 73 76 80 85 95
100 105 107 114 118 120 120 121 126 129 135 130 127 126 123 111 95 79 78 68 62 62 53 45 36 26 19 14 14 14 15 19 25 34 40 47 54 60 65 68 75 73 76 81 86
104 108 115 118 117 120 122 125 128 128 130 129 124 120 115 108 87 68 67 58 52 56 49 43 34 27 17 15 14 17 15 19 24 31 38 44 52 58 65 72 74 75 78 80 83
108 114 117 118 120 120 121 123 131 132 131 125 121 123 107 94 75 63 69 54 53 53 48 40 32 26 16 15 14 17 18 21 24 29 37 44 51 56 63 68 71 76 79 79 79
115 117 119 120 120 120 122 127 131 130 129 127 122 115 99 81 74 68 62 55 46 48 45 39 31 25 17 15 15 18 20 21 26 30 36 43 50 55 61 68 71 74 75 77 76
Wind_Direction
356 357 356 357 357 355 357 356 353 351 352 351 352 352 352 352 348 343 336 333 330 322 310 302 294 290 284 276 267 263 261 254 247 244 240 235 230 228 230 232 233 233 232 231 231
350 353 353 353 352 352 354 353 352 351 349 352 351 352 352 350 348 343 335 334 331 323 312 303 293 291 285 278 272 270 268 257 248 245 242 237 232 229 228 231 231 230 232 229 229
350 349 351 350 350 349 351 351 349 350 349 350 350 351 351 350 346 342 333 338 333 326 317 311 302 293 288 281 277 269 260 255 249 241 240 240 233 229 227 228 228 228 230 227 226
347 345 346 348 348 348 348 349 349 348 348 349 350 349 349 348 345 342 336 339 335 332 326 319 310 301 292 285 279 267 261 253 247 239 233 234 230 227 224 225 223 224 225 228 224
346 345 343 345 346 345 347 348 347 347 347 349 349 348 347 350 344 345 337 341 340 338 334 328 321 311 300 287 275 265 257 249 244 236 231 228 226 221 221 221 219 219 219 223 220
342 344 342 344 344 343 345 347 348 348 345 348 348 349 350 348 346 345 341 344 345 340 339 334 329 321 307 291 277 266 255 247 239 230 227 223 222 219 217 218 214 215 215 217 215
341 341 342 342 342 343 344 345 347 346 345 346 347 348 348 348 349 345 345 346 347 347 343 339 333 326 315 301 284 268 254 240 232 224 220 216 217 216 216 215 212 211 211 211 210
339 339 341 341 342 341 343 345 346 345 343 346 345 347 347 348 347 346 346 347 348 348 345 342 335 330 322 311 296 280 257 238 226 220 217 212 212 211 213 212 212 208 207 208 205
335 336 339 340 340 339 341 344 345 344 343 344 345 346 347 346 347 347 345 348 347 348 345 342 337 333 327 315 304 287 263 236 226 217 213 210 208 207 209 211 209 207 205 206 204
332 334 336 337 337 338 340 343 344 343 342 343 344 343 346 346 345 345 345 346 347 348 346 342 338 335 330 318 305 285 259 234 224 214 208 207 208 206 204 208 205 206 205 204 203
329 332 334 334 335 336 339 342 341 342 340 341 342 343 345 346 348 345 345 344 346 346 344 342 340 338 333 321 306 281 253 232 223 211 207 201 205 203 202 202 201 203 205 203 200
328 330 332 332 335 335 338 342 341 341 340 340 341 341 344 346 345 342 342 345 345 345 344 342 340 339 335 324 309 278 244 223 221 207 202 202 200 201 204 201 199 202 204 202 196
326 327 331 331 334 334 338 341 340 340 339 339 338 341 342 343 343 342 343 343 344 346 343 343 341 340 339 326 313 261 229 215 213 206 201 200 196 201 202 201 199 201 203 202 195
324 326 328 331 332 333 338 339 339 338 337 339 338 340 341 339 341 342 342 343 343 344 343 342 342 341 341 331 314 254 223 213 206 203 202 197 198 200 202 200 200 200 202 200 194
323 326 325 329 330 333 336 338 337 337 336 337 340 341 341 340 340 340 343 343 343 342 341 341 342 340 341 332 316 253 220 210 200 200 199 198 200 200 204 202 200 199 198 197 195
320 323 325 326 329 331 335 337 336 336 334 335 338 341 341 339 338 340 342 344 342 341 339 341 341 339 340 331 316 256 217 204 200 198 198 199 199 203 204 203 200 200 199 196 190
318 321 322 324 326 329 333 335 333 334 334 335 336 340 339 339 337 339 340 341 340 341 339 340 341 337 338 329 318 261 213 205 200 198 198 201 201 202 204 202 202 200 200 195 188
316 318 321 323 324 328 333 333 332 331 332 334 336 339 339 339 336 337 338 340 340 338 338 339 340 335 336 327 318 262 212 202 200 197 198 199 202 202 204 204 203 200 202 196 191
314 316 321 321 323 328 332 331 329 329 330 332 335 336 338 336 335 336 337 337 340 339 337 336 339 333 330 323 312 265 213 208 202 200 200 197 201 203 203 206 205 200 203 198 195
313 316 318 320 325 327 328 328 326 327 330 331 334 336 336 336 335 331 334 335 338 338 336 336 336 333 325 319 306 262 221 209 205 202 201 198 200 202 204 205 206 204 202 198 198
310 313 317 319 324 325 325 325 324 325 327 329 333 334 335 336 333 330 330 333 335 339 338 335 333 331 324 315 297 259 225 209 202 200 200 198 198 202 204 205 204 204 203 200 201
309 312 315 320 322 324 322 324 322 323 325 329 331 332 333 333 331 327 327 334 332 335 336 334 331 327 320 306 288 259 227 213 203 200 199 199 198 200 203 205 206 206 205 204 203
309 312 316 320 321 321 320 321 320 321 326 328 329 331 332 332 330 323 330 336 335 337 337 334 328 326 314 299 283 254 230 211 205 198 196 197 199 199 200 204 207 206 205 203 206
307 312 315 319 316 318 317 318 318 321 324 327 327 329 329 329 328 322 329 334 336 337 339 334 328 324 308 296 275 249 228 215 207 203 196 197 197 198 198 202 206 205 205 203 206
308 312 314 314 314 315 316 317 317 319 322 324 327 328 327 327 326 329 334 338 336 335 337 334 328 319 304 291 270 251 233 224 210 203 198 196 198 200 197 202 205 203 205 205 207
307 309 311 312 312 314 315 315 316 319 321 322 325 325 325 326 327 332 333 342 336 334 335 333 326 314 301 285 266 249 233 218 217 207 200 197 196 200 200 202 203 204 206 208 209
305 307 308 309 311 312 314 316 317 319 321 322 323 322 324 327 324 332 332 344 336 332 335 333 323 310 299 277 266 246 240 221 214 210 206 198 196 198 201 201 203 204 205 208 210